www.cux-wetter.de
Wetterdaten: Woche 14.01.08 - 20.01.08 (KW3)
Datum Zeit Temp. A. Feuchte A. Luftdruck Regen Wind Richtung Sonnenschein Solar Taupunkt Windchill Windben
14.01.2008 00:00 2,2 C 83 % 1009,0 hPa 0,0 l/m 14,6 km/h (3 Bft) S 0,00 h 0 W/m -0,3 C -4,0 C 14,6 km/h (3 Bft)
14.01.2008 01:00 1,5 C 85 % 1008,5 hPa 0,0 l/m 16,6 km/h (3 Bft) S 0,00 h 0 W/m -0,7 C -6,0 C 16,6 km/h (3 Bft)
14.01.2008 02:00 1,0 C 87 % 1007,6 hPa 0,0 l/m 16,9 km/h (3 Bft) S 0,00 h 0 W/m -0,9 C -6,7 C 16,9 km/h (3 Bft)
14.01.2008 03:00 0,9 C 88 % 1006,5 hPa 0,0 l/m 16,2 km/h (3 Bft) S 0,00 h 0 W/m -0,9 C -6,5 C 16,2 km/h (3 Bft)
14.01.2008 04:00 0,9 C 87 % 1005,5 hPa 0,0 l/m 17,5 km/h (3 Bft) S-SO 0,00 h 0 W/m -1,0 C -7,2 C 17,5 km/h (3 Bft)
14.01.2008 05:00 1,0 C 85 % 1004,6 hPa 0,0 l/m 18,3 km/h (3 Bft) S 0,00 h 0 W/m -1,2 C -7,5 C 18,3 km/h (3 Bft)
14.01.2008 06:00 0,7 C 87 % 1003,7 hPa 0,0 l/m 17,8 km/h (3 Bft) S 0,00 h 0 W/m -1,2 C -7,6 C 17,8 km/h (3 Bft)
14.01.2008 07:00 0,3 C 89 % 1003,5 hPa 0,0 l/m 13,6 km/h (3 Bft) S 0,00 h 0 W/m -1,3 C -5,6 C 13,6 km/h (3 Bft)
14.01.2008 08:00 0,6 C 91 % 1003,5 hPa 0,0 l/m 15,0 km/h (3 Bft) S 0,00 h 0 W/m -0,6 C -6,1 C 15,0 km/h (3 Bft)
14.01.2008 09:00 1,8 C 90 % 1003,3 hPa 0,0 l/m 19,8 km/h (3 Bft) S-SW 0,00 h 0 W/m 0,2 C -7,1 C 19,8 km/h (3 Bft)
14.01.2008 10:00 3,0 C 85 % 1003,2 hPa 0,0 l/m 20,5 km/h (4 Bft) S-SW 0,00 h 0 W/m 0,7 C -5,9 C 20,5 km/h (4 Bft)
14.01.2008 11:00 4,1 C 81 % 1003,0 hPa 0,0 l/m 23,1 km/h (4 Bft) S-SW 0,00 h 0 W/m 1,2 C -5,4 C 23,1 km/h (4 Bft)
14.01.2008 12:00 5,0 C 79 % 1002,5 hPa 0,0 l/m 22,8 km/h (4 Bft) S-SW 0,00 h 0 W/m 1,6 C -4,1 C 22,8 km/h (4 Bft)
14.01.2008 13:00 5,8 C 78 % 1002,5 hPa 0,0 l/m 25,6 km/h (4 Bft) SW 0,00 h 0 W/m 2,2 C -4,0 C 25,6 km/h (4 Bft)
14.01.2008 14:00 6,1 C 78 % 1002,0 hPa 0,0 l/m 25,2 km/h (4 Bft) SW 0,00 h 0 W/m 2,6 C -3,5 C 25,2 km/h (4 Bft)
14.01.2008 15:00 6,2 C 78 % 1001,5 hPa 0,0 l/m 20,7 km/h (4 Bft) S-SW 0,00 h 0 W/m 2,7 C -1,7 C 20,7 km/h (4 Bft)
14.01.2008 16:00 5,4 C 81 % 1001,5 hPa 0,0 l/m 13,6 km/h (3 Bft) S 0,00 h 0 W/m 2,4 C 0,3 C 13,6 km/h (3 Bft)
14.01.2008 17:00 4,5 C 85 % 1001,5 hPa 0,0 l/m 14,8 km/h (3 Bft) S 0,00 h 0 W/m 2,2 C -1,3 C 14,8 km/h (3 Bft)
14.01.2008 18:00 4,2 C 87 % 1001,5 hPa 0,0 l/m 17,6 km/h (3 Bft) S 0,00 h 0 W/m 2,2 C -3,2 C 17,6 km/h (3 Bft)
14.01.2008 19:00 4,0 C 88 % 1001,5 hPa 0,0 l/m 16,0 km/h (3 Bft) S 0,00 h 0 W/m 2,2 C -2,6 C 16,0 km/h (3 Bft)
14.01.2008 20:00 4,6 C 88 % 1001,5 hPa 0,0 l/m 18,0 km/h (3 Bft) S 0,00 h 0 W/m 2,9 C -2,7 C 18,0 km/h (3 Bft)
14.01.2008 21:00 4,8 C 88 % 1000,7 hPa 0,0 l/m 19,6 km/h (3 Bft) S 0,00 h 0 W/m 3,0 C -3,2 C 19,6 km/h (3 Bft)
14.01.2008 22:00 4,8 C 89 % 1000,5 hPa 0,0 l/m 19,3 km/h (3 Bft) S-SW 0,00 h 0 W/m 3,1 C -3,0 C 19,3 km/h (3 Bft)
14.01.2008 23:00 6,2 C 86 % 1000,5 hPa 0,0 l/m 24,1 km/h (4 Bft) S-SW 0,00 h 0 W/m 4,1 C -3,0 C 24,1 km/h (4 Bft)
15.01.2008 00:00 6,7 C 85 % 1000,5 hPa 0,0 l/m 25,1 km/h (4 Bft) S-SW 0,00 h 0 W/m 4,4 C -2,6 C 25,1 km/h (4 Bft)
15.01.2008 01:00 6,5 C 86 % 999,5 hPa 0,0 l/m 24,0 km/h (4 Bft) SW 0,00 h 0 W/m 4,3 C -2,6 C 24,0 km/h (4 Bft)
15.01.2008 02:00 6,4 C 88 % 999,5 hPa 0,0 l/m 26,1 km/h (4 Bft) SW 0,00 h 0 W/m 4,7 C -3,3 C 26,1 km/h (4 Bft)
15.01.2008 03:00 6,8 C 89 % 999,5 hPa 0,0 l/m 26,9 km/h (4 Bft) SW 0,00 h 0 W/m 5,1 C -2,9 C 26,9 km/h (4 Bft)
15.01.2008 04:00 6,9 C 88 % 998,9 hPa 0,0 l/m 28,4 km/h (5 Bft) SW 0,00 h 0 W/m 5,1 C -3,2 C 28,4 km/h (5 Bft)
15.01.2008 05:00 7,8 C 84 % 998,5 hPa 0,0 l/m 26,1 km/h (4 Bft) SW 0,00 h 0 W/m 5,3 C -1,4 C 26,1 km/h (4 Bft)
15.01.2008 06:00 7,6 C 85 % 998,5 hPa 0,0 l/m 25,5 km/h (4 Bft) SW 0,00 h 0 W/m 5,2 C -1,4 C 25,5 km/h (4 Bft)
15.01.2008 07:00 7,8 C 85 % 998,5 hPa 0,0 l/m 27,5 km/h (5 Bft) SW 0,00 h 0 W/m 5,5 C -1,8 C 27,5 km/h (5 Bft)
15.01.2008 08:00 7,9 C 85 % 998,0 hPa 0,0 l/m 28,2 km/h (5 Bft) SW 0,00 h 0 W/m 5,6 C -1,8 C 28,2 km/h (5 Bft)
15.01.2008 09:00 8,3 C 83 % 997,5 hPa 0,0 l/m 30,0 km/h (5 Bft) SW 0,00 h 0 W/m 5,6 C -1,6 C 30,0 km/h (5 Bft)
15.01.2008 10:00 8,8 C 80 % 997,3 hPa 0,0 l/m 32,1 km/h (5 Bft) SW 0,00 h 0 W/m 5,6 C -1,4 C 32,1 km/h (5 Bft)
15.01.2008 11:00 9,0 C 79 % 996,4 hPa 0,0 l/m 32,0 km/h (5 Bft) SW 0,00 h 0 W/m 5,6 C -1,1 C 32,0 km/h (5 Bft)
15.01.2008 12:00 8,8 C 79 % 995,3 hPa 0,0 l/m 34,4 km/h (5 Bft) SW 0,00 h 0 W/m 5,3 C -1,9 C 34,4 km/h (5 Bft)
15.01.2008 13:00 8,9 C 78 % 994,1 hPa 0,0 l/m 32,1 km/h (5 Bft) S-SW 0,00 h 0 W/m 5,3 C -1,2 C 32,1 km/h (5 Bft)
15.01.2008 14:00 8,8 C 79 % 992,5 hPa 0,0 l/m 30,8 km/h (5 Bft) S-SW 0,00 h 0 W/m 5,3 C -1,1 C 30,8 km/h (5 Bft)
15.01.2008 15:00 8,6 C 80 % 991,3 hPa 0,0 l/m 31,3 km/h (5 Bft) S-SW 0,00 h 0 W/m 5,2 C -1,6 C 31,3 km/h (5 Bft)
15.01.2008 16:00 7,5 C 88 % 989,9 hPa 0,0 l/m 28,9 km/h (5 Bft) S 0,00 h 0 W/m 5,6 C -2,5 C 28,9 km/h (5 Bft)
15.01.2008 17:00 7,4 C 88 % 988,5 hPa 0,0 l/m 29,9 km/h (5 Bft) S-SW 0,00 h 0 W/m 5,6 C -2,9 C 29,9 km/h (5 Bft)
15.01.2008 18:00 7,3 C 90 % 987,6 hPa 0,0 l/m 26,8 km/h (4 Bft) S-SW 0,00 h 0 W/m 5,7 C -2,2 C 26,8 km/h (4 Bft)
15.01.2008 19:00 7,5 C 91 % 987,0 hPa 0,0 l/m 37,6 km/h (5 Bft) SW 0,00 h 0 W/m 6,1 C -4,3 C 37,6 km/h (5 Bft)
15.01.2008 20:00 7,7 C 90 % 986,5 hPa 0,0 l/m 37,6 km/h (5 Bft) SW 0,00 h 0 W/m 6,2 C -4,0 C 37,6 km/h (5 Bft)
15.01.2008 21:00 8,2 C 87 % 986,2 hPa 0,0 l/m 33,5 km/h (5 Bft) SW 0,00 h 0 W/m 6,1 C -2,6 C 33,5 km/h (5 Bft)
15.01.2008 22:00 8,6 C 81 % 985,5 hPa 0,0 l/m 34,5 km/h (5 Bft) SW 0,00 h 0 W/m 5,6 C -2,2 C 34,5 km/h (5 Bft)
15.01.2008 23:00 8,2 C 87 % 985,5 hPa 0,0 l/m 32,3 km/h (5 Bft) SW 0,00 h 0 W/m 6,1 C -2,4 C 32,3 km/h (5 Bft)
16.01.2008 00:00 7,7 C 91 % 985,0 hPa 0,0 l/m 28,7 km/h (5 Bft) S-SW 0,00 h 0 W/m 6,3 C -2,2 C 28,7 km/h (5 Bft)
16.01.2008 01:00 7,7 C 92 % 984,5 hPa 0,0 l/m 32,6 km/h (5 Bft) S-SW 0,00 h 0 W/m 6,4 C -3,2 C 32,6 km/h (5 Bft)
16.01.2008 02:00 8,1 C 87 % 983,6 hPa 0,0 l/m 33,7 km/h (5 Bft) S-SW 0,00 h 0 W/m 6,1 C -2,7 C 33,7 km/h (5 Bft)
16.01.2008 03:00 8,7 C 82 % 983,5 hPa 0,0 l/m 36,0 km/h (5 Bft) SW 0,00 h 0 W/m 5,8 C -2,3 C 36,0 km/h (5 Bft)
16.01.2008 04:00 9,0 C 80 % 983,5 hPa 0,0 l/m 35,0 km/h (5 Bft) S-SW 0,00 h 0 W/m 5,7 C -1,7 C 35,0 km/h (5 Bft)
16.01.2008 05:00 9,3 C 78 % 983,5 hPa 0,0 l/m 34,8 km/h (5 Bft) SW 0,00 h 0 W/m 5,6 C -1,3 C 34,8 km/h (5 Bft)
16.01.2008 06:00 9,2 C 77 % 984,3 hPa 0,0 l/m 35,6 km/h (5 Bft) W-SW 0,00 h 0 W/m 5,3 C -1,5 C 35,6 km/h (5 Bft)
16.01.2008 07:00 8,5 C 77 % 985,3 hPa 0,0 l/m 31,6 km/h (5 Bft) W-SW 0,00 h 0 W/m 4,7 C -1,7 C 31,6 km/h (5 Bft)
16.01.2008 08:00 8,0 C 78 % 985,5 hPa 0,0 l/m 34,5 km/h (5 Bft) W-SW 0,00 h 0 W/m 4,3 C -3,1 C 34,5 km/h (5 Bft)
16.01.2008 09:00 7,6 C 79 % 985,8 hPa 0,0 l/m 34,9 km/h (5 Bft) W-SW 0,00 h 0 W/m 4,3 C -3,7 C 34,9 km/h (5 Bft)
16.01.2008 10:00 7,7 C 80 % 987,4 hPa 0,0 l/m 36,9 km/h (5 Bft) W-SW 0,00 h 0 W/m 4,6 C -3,9 C 36,9 km/h (5 Bft)
16.01.2008 11:00 8,3 C 78 % 988,3 hPa 0,0 l/m 39,1 km/h (6 Bft) W-SW 0,00 h 0 W/m 4,7 C -3,4 C 39,1 km/h (6 Bft)
16.01.2008 12:00 8,4 C 78 % 989,3 hPa 0,0 l/m 37,7 km/h (5 Bft) W-SW 0,00 h 0 W/m 4,7 C -3,1 C 37,7 km/h (5 Bft)
16.01.2008 13:00 8,1 C 77 % 990,3 hPa 0,0 l/m 37,3 km/h (5 Bft) W-SW 0,00 h 0 W/m 4,4 C -3,4 C 37,3 km/h (5 Bft)
16.01.2008 14:00 8,2 C 77 % 991,3 hPa 0,0 l/m 38,2 km/h (6 Bft) W-SW 0,00 h 0 W/m 4,4 C -3,5 C 38,2 km/h (6 Bft)
16.01.2008 15:00 7,9 C 80 % 992,3 hPa 0,0 l/m 34,1 km/h (5 Bft) W-SW 0,00 h 0 W/m 4,6 C -3,2 C 34,1 km/h (5 Bft)
16.01.2008 16:00 7,4 C 82 % 993,8 hPa 0,0 l/m 30,3 km/h (5 Bft) W-SW 0,00 h 0 W/m 4,5 C -3,0 C 30,3 km/h (5 Bft)
16.01.2008 17:00 7,3 C 83 % 995,2 hPa 0,0 l/m 27,2 km/h (5 Bft) W-SW 0,00 h 0 W/m 4,5 C -2,4 C 27,2 km/h (5 Bft)
16.01.2008 18:00 7,3 C 84 % 996,0 hPa 0,0 l/m 25,9 km/h (4 Bft) W-SW 0,00 h 0 W/m 4,8 C -2,0 C 25,9 km/h (4 Bft)
16.01.2008 19:00 7,4 C 85 % 997,0 hPa 0,0 l/m 27,8 km/h (5 Bft) W-SW 0,00 h 0 W/m 5,1 C -2,4 C 27,8 km/h (5 Bft)
16.01.2008 20:00 7,1 C 87 % 998,2 hPa 0,0 l/m 23,7 km/h (4 Bft) W-SW 0,00 h 0 W/m 5,1 C -1,6 C 23,7 km/h (4 Bft)
16.01.2008 21:00 6,9 C 87 % 998,8 hPa 0,0 l/m 26,0 km/h (4 Bft) W-SW 0,00 h 0 W/m 4,9 C -2,6 C 26,0 km/h (4 Bft)
16.01.2008 22:00 6,2 C 89 % 999,8 hPa 0,0 l/m 26,5 km/h (4 Bft) W-SW 0,00 h 0 W/m 4,6 C -3,7 C 26,5 km/h (4 Bft)
16.01.2008 23:00 6,3 C 90 % 1000,9 hPa 0,0 l/m 21,1 km/h (4 Bft) W-SW 0,00 h 0 W/m 4,8 C -1,8 C 21,1 km/h (4 Bft)
17.01.2008 00:00 6,4 C 89 % 1001,6 hPa 0,0 l/m 16,3 km/h (3 Bft) W-SW 0,00 h 0 W/m 4,7 C 0,2 C 16,3 km/h (3 Bft)
17.01.2008 01:00 6,2 C 90 % 1002,5 hPa 0,0 l/m 14,2 km/h (3 Bft) W-SW 0,00 h 0 W/m 4,6 C 1,0 C 14,2 km/h (3 Bft)
17.01.2008 02:00 5,8 C 90 % 1002,5 hPa 0,0 l/m 16,5 km/h (3 Bft) W-SW 0,00 h 0 W/m 4,3 C -0,6 C 16,5 km/h (3 Bft)
17.01.2008 03:00 4,8 C 91 % 1003,2 hPa 0,0 l/m 11,7 km/h (2 Bft) W-SW 0,00 h 0 W/m 3,5 C 0,7 C 11,7 km/h (2 Bft)
17.01.2008 04:00 3,8 C 92 % 1003,5 hPa 0,0 l/m 7,4 km/h (2 Bft) S-SW 0,00 h 0 W/m 2,7 C 2,8 C 7,4 km/h (2 Bft)
17.01.2008 05:00 3,2 C 93 % 1004,2 hPa 0,0 l/m 8,2 km/h (2 Bft) SW 0,00 h 0 W/m 2,1 C 1,6 C 8,2 km/h (2 Bft)
17.01.2008 06:00 2,7 C 94 % 1004,8 hPa 0,0 l/m 7,5 km/h (2 Bft) SW 0,00 h 0 W/m 1,8 C 1,6 C 7,5 km/h (2 Bft)
17.01.2008 07:00 2,6 C 94 % 1005,5 hPa 0,0 l/m 9,5 km/h (2 Bft) SW 0,00 h 0 W/m 1,8 C -0,0 C 9,5 km/h (2 Bft)
17.01.2008 08:00 2,6 C 96 % 1005,5 hPa 0,0 l/m 9,2 km/h (2 Bft) SW 0,00 h 0 W/m 2,0 C 0,2 C 9,2 km/h (2 Bft)
17.01.2008 09:00 3,1 C 97 % 1006,3 hPa 0,0 l/m 11,6 km/h (2 Bft) W-SW 0,00 h 0 W/m 2,6 C -1,0 C 11,6 km/h (2 Bft)
17.01.2008 10:00 4,2 C 97 % 1006,0 hPa 0,0 l/m 16,7 km/h (3 Bft) SW 0,00 h 0 W/m 3,8 C -2,6 C 16,7 km/h (3 Bft)
17.01.2008 11:00 4,8 C 97 % 1005,5 hPa 0,0 l/m 18,0 km/h (3 Bft) SW 0,00 h 0 W/m 4,4 C -2,5 C 18,0 km/h (3 Bft)
17.01.2008 12:00 5,5 C 97 % 1005,2 hPa 0,0 l/m 20,6 km/h (4 Bft) SW 0,00 h 0 W/m 5,1 C -2,6 C 20,6 km/h (4 Bft)
17.01.2008 13:00 6,0 C 95 % 1004,5 hPa 0,0 l/m 17,3 km/h (3 Bft) SW 0,00 h 0 W/m 5,2 C -0,7 C 17,3 km/h (3 Bft)
17.01.2008 14:00 6,5 C 92 % 1004,5 hPa 0,0 l/m 17,3 km/h (3 Bft) SW 0,00 h 0 W/m 5,2 C -0,1 C 17,3 km/h (3 Bft)
17.01.2008 15:00 6,5 C 89 % 1003,7 hPa 0,0 l/m 21,3 km/h (4 Bft) S-SW 0,00 h 0 W/m 4,9 C -1,6 C 21,3 km/h (4 Bft)
17.01.2008 16:00 6,3 C 88 % 1002,5 hPa 0,0 l/m 16,1 km/h (3 Bft) S-SW 0,00 h 0 W/m 4,4 C 0,2 C 16,1 km/h (3 Bft)
17.01.2008 17:00 5,9 C 90 % 1001,9 hPa 0,0 l/m 13,1 km/h (3 Bft) S 0,00 h 0 W/m 4,3 C 1,3 C 13,1 km/h (3 Bft)
17.01.2008 18:00 6,4 C 90 % 1001,0 hPa 0,0 l/m 16,6 km/h (3 Bft) S 0,00 h 0 W/m 4,8 C 0,1 C 16,6 km/h (3 Bft)
17.01.2008 19:00 6,7 C 87 % 999,6 hPa 0,0 l/m 20,0 km/h (4 Bft) S 0,00 h 0 W/m 4,7 C -1,0 C 20,0 km/h (4 Bft)
17.01.2008 20:00 6,5 C 90 % 999,0 hPa 0,0 l/m 19,6 km/h (3 Bft) S 0,00 h 0 W/m 4,9 C -1,0 C 19,6 km/h (3 Bft)
17.01.2008 21:00 6,0 C 93 % 997,8 hPa 0,0 l/m 23,6 km/h (4 Bft) S 0,00 h 0 W/m 4,9 C -3,1 C 23,6 km/h (4 Bft)
17.01.2008 22:00 5,8 C 95 % 996,7 hPa 0,0 l/m 21,1 km/h (4 Bft) S 0,00 h 0 W/m 5,1 C -2,5 C 21,1 km/h (4 Bft)
17.01.2008 23:00 6,1 C 96 % 995,8 hPa 0,0 l/m 22,5 km/h (4 Bft) S 0,00 h 0 W/m 5,5 C -2,6 C 22,5 km/h (4 Bft)
18.01.2008 00:00 6,6 C 96 % 995,5 hPa 0,0 l/m 25,6 km/h (4 Bft) S-SW 0,00 h 0 W/m 6,0 C -2,9 C 25,6 km/h (4 Bft)
18.01.2008 01:00 6,9 C 96 % 995,5 hPa 0,0 l/m 24,7 km/h (4 Bft) SW 0,00 h 0 W/m 6,3 C -2,3 C 24,7 km/h (4 Bft)
18.01.2008 02:00 6,9 C 95 % 996,3 hPa 0,0 l/m 33,2 km/h (5 Bft) W-SW 0,00 h 0 W/m 6,2 C -4,3 C 33,2 km/h (5 Bft)
18.01.2008 03:00 6,7 C 94 % 997,3 hPa 0,0 l/m 32,5 km/h (5 Bft) W-SW 0,00 h 0 W/m 5,8 C -4,6 C 32,5 km/h (5 Bft)
18.01.2008 04:00 6,9 C 92 % 998,3 hPa 0,0 l/m 34,0 km/h (5 Bft) W 0,00 h 0 W/m 5,8 C -4,5 C 34,0 km/h (5 Bft)
18.01.2008 05:00 6,8 C 92 % 998,5 hPa 0,0 l/m 32,5 km/h (5 Bft) W 0,00 h 0 W/m 5,6 C -4,3 C 32,5 km/h (5 Bft)
18.01.2008 06:00 6,8 C 92 % 998,5 hPa 0,0 l/m 28,7 km/h (5 Bft) W 0,00 h 0 W/m 5,6 C -3,5 C 28,7 km/h (5 Bft)
18.01.2008 07:00 6,8 C 93 % 998,5 hPa 0,0 l/m 25,8 km/h (4 Bft) W 0,00 h 0 W/m 5,6 C -2,7 C 25,8 km/h (4 Bft)
18.01.2008 08:00 6,7 C 93 % 1001,5 hPa 0,0 l/m 25,7 km/h (4 Bft) W 0,00 h 0 W/m 5,6 C -2,8 C 25,7 km/h (4 Bft)
18.01.2008 09:00 6,7 C 93 % 1003,5 hPa 0,0 l/m 26,4 km/h (4 Bft) W 0,00 h 0 W/m 5,7 C -3,0 C 26,4 km/h (4 Bft)
18.01.2008 10:00 7,0 C 92 % 1005,8 hPa 0,0 l/m 28,1 km/h (5 Bft) W 0,00 h 0 W/m 5,8 C -3,1 C 28,1 km/h (5 Bft)
18.01.2008 11:00 7,2 C 92 % 1006,6 hPa 0,0 l/m 29,4 km/h (5 Bft) W 0,00 h 0 W/m 6,0 C -3,0 C 29,4 km/h (5 Bft)
18.01.2008 12:00 7,3 C 92 % 1007,5 hPa 0,0 l/m 31,7 km/h (5 Bft) W-SW 0,00 h 0 W/m 6,1 C -3,6 C 31,7 km/h (5 Bft)
18.01.2008 13:00 7,6 C 92 % 1007,5 hPa 0,0 l/m 30,4 km/h (5 Bft) W-SW 0,00 h 0 W/m 6,4 C -2,7 C 30,4 km/h (5 Bft)
18.01.2008 14:00 8,0 C 91 % 1007,5 hPa 0,0 l/m 31,3 km/h (5 Bft) W-SW 0,00 h 0 W/m 6,7 C -2,4 C 31,3 km/h (5 Bft)
18.01.2008 15:00 8,1 C 89 % 1007,5 hPa 0,0 l/m 31,7 km/h (5 Bft) W-SW 0,00 h 0 W/m 6,5 C -2,3 C 31,7 km/h (5 Bft)
18.01.2008 16:00 8,0 C 89 % 1007,5 hPa 0,0 l/m 26,4 km/h (4 Bft) W-SW 0,00 h 0 W/m 6,4 C -1,2 C 26,4 km/h (4 Bft)
18.01.2008 17:00 7,8 C 91 % 1007,0 hPa 0,0 l/m 21,8 km/h (4 Bft) W-SW 0,00 h 0 W/m 6,5 C -0,1 C 21,8 km/h (4 Bft)
18.01.2008 18:00 7,4 C 94 % 1005,5 hPa 0,6 l/m 27,3 km/h (5 Bft) SW 0,00 h 0 W/m 6,4 C -2,2 C 27,3 km/h (5 Bft)
18.01.2008 19:00 7,4 C 96 % 1004,0 hPa 0,9 l/m 28,8 km/h (5 Bft) SW 0,00 h 0 W/m 6,9 C -2,7 C 28,8 km/h (5 Bft)
18.01.2008 20:00 7,8 C 97 % 1003,0 hPa 1,5 l/m 33,9 km/h (5 Bft) W-SW 0,00 h 0 W/m 7,4 C -3,2 C 33,9 km/h (5 Bft)
18.01.2008 21:00 8,3 C 98 % 1002,3 hPa 1,5 l/m 39,0 km/h (6 Bft) W-SW 0,00 h 0 W/m 8,0 C -3,4 C 39,0 km/h (6 Bft)
18.01.2008 22:00 8,8 C 99 % 1001,5 hPa 0,0 l/m 41,7 km/h (6 Bft) W-SW 0,00 h 0 W/m 8,6 C -3,0 C 41,7 km/h (6 Bft)
18.01.2008 23:00 9,7 C 98 % 1001,8 hPa 0,3 l/m 41,2 km/h (6 Bft) W-SW 0,00 h 0 W/m 9,4 C -1,7 C 41,2 km/h (6 Bft)
19.01.2008 00:00 10,5 C 96 % 1002,5 hPa 0,0 l/m 40,9 km/h (6 Bft) W-SW 0,00 h 0 W/m 9,9 C -0,5 C 40,9 km/h (6 Bft)
19.01.2008 01:00 10,8 C 94 % 1002,5 hPa 0,0 l/m 38,9 km/h (6 Bft) W 0,00 h 0 W/m 9,8 C 0,3 C 38,9 km/h (6 Bft)
19.01.2008 02:00 11,0 C 93 % 1002,9 hPa 0,0 l/m 36,8 km/h (5 Bft) W 0,00 h 0 W/m 9,9 C 0,9 C 36,8 km/h (5 Bft)
19.01.2008 03:00 11,0 C 92 % 1003,5 hPa 0,0 l/m 34,9 km/h (5 Bft) W 0,00 h 0 W/m 9,8 C 1,3 C 34,9 km/h (5 Bft)
19.01.2008 04:00 10,8 C 92 % 1004,3 hPa 0,0 l/m 38,1 km/h (6 Bft) W 0,00 h 0 W/m 9,6 C 0,4 C 38,1 km/h (6 Bft)
19.01.2008 05:00 10,0 C 93 % 1004,7 hPa 0,0 l/m 38,9 km/h (6 Bft) W 0,00 h 0 W/m 9,0 C -0,9 C 38,9 km/h (6 Bft)
19.01.2008 06:00 9,5 C 94 % 1005,5 hPa 0,0 l/m 35,3 km/h (5 Bft) W-NW 0,00 h 0 W/m 8,6 C -1,0 C 35,3 km/h (5 Bft)
19.01.2008 07:00 9,1 C 94 % 1006,3 hPa 0,0 l/m 32,5 km/h (5 Bft) W-NW 0,00 h 0 W/m 8,2 C -1,0 C 32,5 km/h (5 Bft)
19.01.2008 08:00 8,8 C 94 % 1007,1 hPa 0,0 l/m 29,3 km/h (5 Bft) W 0,00 h 0 W/m 7,8 C -0,8 C 29,3 km/h (5 Bft)
19.01.2008 09:00 8,7 C 93 % 1008,3 hPa 0,0 l/m 29,1 km/h (5 Bft) W 0,00 h 0 W/m 7,6 C -0,9 C 29,1 km/h (5 Bft)
19.01.2008 10:00 8,6 C 91 % 1009,0 hPa 0,0 l/m 27,0 km/h (5 Bft) W 0,00 h 0 W/m 7,2 C -0,5 C 27,0 km/h (5 Bft)
19.01.2008 11:00 8,5 C 90 % 1010,0 hPa 0,0 l/m 26,6 km/h (4 Bft) W-NW 0,00 h 0 W/m 6,9 C -0,6 C 26,6 km/h (4 Bft)
19.01.2008 12:00 8,3 C 90 % 1010,8 hPa 0,0 l/m 24,0 km/h (4 Bft) W-NW 0,00 h 0 W/m 6,7 C -0,2 C 24,0 km/h (4 Bft)
19.01.2008 13:00 7,9 C 92 % 1011,4 hPa 0,0 l/m 21,7 km/h (4 Bft) W-NW 0,00 h 0 W/m 6,7 C 0,1 C 21,7 km/h (4 Bft)
19.01.2008 14:00 7,6 C 90 % 1011,8 hPa 0,0 l/m 20,7 km/h (4 Bft) W-NW 0,00 h 0 W/m 6,1 C -0,1 C 20,7 km/h (4 Bft)
19.01.2008 15:00 7,3 C 92 % 1013,0 hPa 0,0 l/m 20,2 km/h (4 Bft) W-NW 0,00 h 0 W/m 6,0 C -0,2 C 20,2 km/h (4 Bft)
19.01.2008 16:00 6,7 C 92 % 1013,6 hPa 0,0 l/m 21,3 km/h (4 Bft) W-NW 0,00 h 0 W/m 5,5 C -1,4 C 21,3 km/h (4 Bft)
19.01.2008 17:00 6,4 C 93 % 1014,5 hPa 0,0 l/m 22,0 km/h (4 Bft) W-NW 0,00 h 0 W/m 5,4 C -2,0 C 22,0 km/h (4 Bft)
19.01.2008 18:00 6,4 C 94 % 1015,5 hPa 0,0 l/m 20,3 km/h (4 Bft) W-NW 0,00 h 0 W/m 5,4 C -1,5 C 20,3 km/h (4 Bft)
19.01.2008 19:00 6,2 C 94 % 1016,3 hPa 0,0 l/m 17,7 km/h (3 Bft) W-NW 0,00 h 0 W/m 5,4 C -0,6 C 17,7 km/h (3 Bft)
19.01.2008 20:00 6,1 C 95 % 1016,5 hPa 0,0 l/m 16,0 km/h (3 Bft) W 0,00 h 0 W/m 5,4 C -0,0 C 16,0 km/h (3 Bft)
19.01.2008 21:00 5,7 C 96 % 1016,5 hPa 0,0 l/m 16,0 km/h (3 Bft) W 0,00 h 0 W/m 5,1 C -0,6 C 16,0 km/h (3 Bft)
19.01.2008 22:00 5,7 C 96 % 1016,8 hPa 0,0 l/m 16,8 km/h (3 Bft) W 0,00 h 0 W/m 5,1 C -0,8 C 16,8 km/h (3 Bft)
19.01.2008 23:00 5,7 C 96 % 1017,0 hPa 0,0 l/m 18,4 km/h (3 Bft) W 0,00 h 0 W/m 5,1 C -1,5 C 18,4 km/h (3 Bft)
20.01.2008 00:00 5,9 C 96 % 1017,5 hPa 0,0 l/m 18,0 km/h (3 Bft) W 0,00 h 0 W/m 5,3 C -1,2 C 18,0 km/h (3 Bft)
20.01.2008 01:00 6,1 C 96 % 1017,0 hPa 0,0 l/m 18,3 km/h (3 Bft) W 0,00 h 0 W/m 5,4 C -1,1 C 18,3 km/h (3 Bft)
20.01.2008 02:00 6,1 C 95 % 1016,5 hPa 0,0 l/m 13,8 km/h (3 Bft) W-SW 0,00 h 0 W/m 5,3 C 1,1 C 13,8 km/h (3 Bft)
20.01.2008 03:00 6,3 C 94 % 1016,5 hPa 0,0 l/m 13,5 km/h (3 Bft) W-SW 0,00 h 0 W/m 5,4 C 1,4 C 13,5 km/h (3 Bft)
20.01.2008 04:00 6,2 C 94 % 1015,3 hPa 0,0 l/m 9,6 km/h (2 Bft) W-SW 0,00 h 0 W/m 5,3 C 3,8 C 9,6 km/h (2 Bft)
20.01.2008 05:00 6,1 C 95 % 1014,2 hPa 0,0 l/m 11,3 km/h (2 Bft) SW 0,00 h 0 W/m 5,4 C 2,5 C 11,3 km/h (2 Bft)
20.01.2008 06:00 6,4 C 96 % 1013,6 hPa 0,0 l/m 11,2 km/h (2 Bft) W-SW 0,00 h 0 W/m 5,8 C 3,0 C 11,2 km/h (2 Bft)
20.01.2008 07:00 6,7 C 96 % 1012,9 hPa 0,0 l/m 11,6 km/h (2 Bft) S-SW 0,00 h 0 W/m 6,1 C 3,1 C 11,6 km/h (2 Bft)
20.01.2008 08:00 7,1 C 97 % 1012,8 hPa 0,6 l/m 7,5 km/h (2 Bft) S-SW 0,00 h 0 W/m 6,6 C 5,8 C 7,5 km/h (2 Bft)
20.01.2008 09:00 7,2 C 97 % 1012,5 hPa 0,6 l/m 7,2 km/h (2 Bft) S 0,00 h 0 W/m 6,8 C 6,3 C 7,2 km/h (2 Bft)
20.01.2008 10:00 8,6 C 96 % 1011,5 hPa 0,9 l/m 9,9 km/h (2 Bft) S 0,00 h 0 W/m 8,1 C 6,2 C 9,9 km/h (2 Bft)
20.01.2008 11:00 8,6 C 95 % 1010,7 hPa 2,1 l/m 9,7 km/h (2 Bft) S-SW 0,00 h 0 W/m 7,9 C 6,3 C 9,7 km/h (2 Bft)
20.01.2008 12:00 8,4 C 97 % 1010,0 hPa 1,5 l/m 15,4 km/h (3 Bft) W 0,00 h 0 W/m 8,0 C 3,2 C 15,4 km/h (3 Bft)
20.01.2008 13:00 8,2 C 98 % 1009,5 hPa 0,3 l/m 22,9 km/h (4 Bft) W 0,00 h 0 W/m 8,0 C 0,4 C 22,9 km/h (4 Bft)
20.01.2008 14:00 8,5 C 99 % 1009,3 hPa 0,6 l/m 34,0 km/h (5 Bft) W-NW 0,00 h 0 W/m 8,3 C -2,2 C 34,0 km/h (5 Bft)
20.01.2008 15:00 8,2 C 99 % 1009,2 hPa 0,0 l/m 32,5 km/h (5 Bft) W-NW 0,00 h 0 W/m 8,1 C -2,4 C 32,5 km/h (5 Bft)
20.01.2008 16:00 8,1 C 99 % 1009,5 hPa 0,3 l/m 32,6 km/h (5 Bft) W-NW 0,00 h 0 W/m 8,0 C -2,5 C 32,6 km/h (5 Bft)
20.01.2008 17:00 7,6 C 99 % 1009,5 hPa 0,0 l/m 26,9 km/h (4 Bft) W-NW 0,00 h 0 W/m 7,4 C -1,9 C 26,9 km/h (4 Bft)
20.01.2008 18:00 7,0 C 99 % 1010,3 hPa 0,0 l/m 20,2 km/h (4 Bft) W-NW 0,00 h 0 W/m 6,9 C -0,5 C 20,2 km/h (4 Bft)
20.01.2008 19:00 6,7 C 99 % 1010,5 hPa 0,0 l/m 15,8 km/h (3 Bft) W-NW 0,00 h 0 W/m 6,6 C 0,8 C 15,8 km/h (3 Bft)
20.01.2008 20:00 6,7 C 99 % 1010,5 hPa 0,0 l/m 14,0 km/h (3 Bft) W 0,00 h 0 W/m 6,6 C 1,8 C 14,0 km/h (3 Bft)
20.01.2008 21:00 6,7 C 99 % 1010,5 hPa 0,3 l/m 12,8 km/h (3 Bft) W 0,00 h 0 W/m 6,6 C 2,4 C 12,8 km/h (3 Bft)
20.01.2008 22:00 6,8 C 99 % 1010,5 hPa 0,0 l/m 12,7 km/h (3 Bft) W 0,00 h 0 W/m 6,6 C 2,5 C 12,7 km/h (3 Bft)
20.01.2008 23:00 6,8 C 99 % 1010,5 hPa 0,0 l/m 13,2 km/h (3 Bft) W 0,00 h 0 W/m 6,6 C 2,2 C 13,2 km/h (3 Bft)
Min-Datum _ 14.01.08 15.01.08 16.01.08 - 20.01.08 - - - 14.01.08 14.01.08 20.01.08
_ Min-Zeit 07:10 15:02 02:08 - 11:26 - - - 07:07 06:40 11:26
Minimum _ 0,3 C 75 % 983,5 hPa - 2,8 km/h (1 Bft) - - - -1,5 C -10,0 C 2,8 km/h (1 Bft)
Max-Datum _ 19.01.08 18.01.08 19.01.08 20.01.08 18.01.08 - 14.01.08 14.01.08 19.01.08 20.01.08 18.01.08
_ Max-Zeit 03:26 22:23 22:47 11:11 22:17 - 00:01 00:01 00:29 11:32 22:17
Maximum _ 11,2 C 99 % 1017,5 hPa 2,1 l/m 53,1 km/h
W-SW (7 Bft)
- 0,00 h 0 W/m 10,1 C 9,0 C 53,1 km/h
W-SW (7 Bft)
Durchschnitt _ 6,7 C 90 % 1002,1 hPa #12,0 l/m 24,3 km/h (4 Bft) W-SW #0 min. 0 W/m 5,1 C -1,7 C 24,3 km/h (4 Bft)
copyright by Holger Just